Tracking 19192 objects as of 20-Jun-2018
HD Live streaming from Space Station
objects crossing your sky now

SL-12 DEB

Track SL-12 DEB now!
10-day predictions


NORAD ID: 42973
Int'l Code: 2010-041N
Perigee: 875.8 km
Apogee: 18,680.4 km
Inclination: 65.1 °
Period: 340.4 minutes
Semi major axis: 16149 km
RCS: Unknown
Launch date: September 2, 2010
Source: Commonwealth of Independent States (former USSR) (CIS)
Launch site: TYURATAM MISSILE AND SPACE COMPLEX (TTMTR)

Note: This is SATELLITE DEBRIS
aabbcc
Your satellite tracking list
Your tracking list is empty




NASA's NSSDC Master Catalog

Two Line Element Set (TLE):
1 42973U 10041N   18170.13649522 +.00004270 +00000-0 +91707-1 0  9998
2 42973 065.0699 077.9016 5512540 072.0132 338.7280 04.23038658012204
Source of the keplerian elements: AFSPC